This is the latest recevied weather packets stored in our database for station/object IU2NAF-13. If no packets are shown the sender has not sent any weather packets the latest 10 day(s).
| Time | Temp. | Humidity | Pressure | Rain* | Wind** | Luminosity | Snow |
|---|---|---|---|---|---|---|---|
| 1787737886 | 25.56° C | 59% | 1018.3 hPa | - | - | - | - |
| 1787736685 | 25.56° C | 58% | 1018.2 hPa | - | - | - | - |
| 1787735485 | 25.56° C | 58% | 1018.3 hPa | - | - | - | - |
| 1787734285 | 25.56° C | 58% | 1018.2 hPa | - | - | - | - |
| 1787733084 | 25° C | 58% | 1018.2 hPa | - | - | - | - |
| 1787731884 | 25° C | 59% | 1018.3 hPa | - | - | - | - |
| 1787730695 | 25° C | 60% | 1018.2 hPa | - | - | - | - |
| 1787729483 | 25° C | 59% | 1018 hPa | - | - | - | - |
| 1787728283 | 24.44° C | 60% | 1017.9 hPa | - | - | - | - |
| 1787727083 | 24.44° C | 60% | 1017.6 hPa | - | - | - | - |
| 1787725882 | 24.44° C | 62% | 1017.7 hPa | - | - | - | - |
| 1787724682 | 24.44° C | 61% | 1017.4 hPa | - | - | - | - |
| 1787723482 | 23.89° C | 63% | 1017.3 hPa | - | - | - | - |
| 1787722281 | 23.89° C | 64% | 1017.2 hPa | - | - | - | - |
| 1787721081 | 24.44° C | 62% | 1017 hPa | - | - | - | - |
| 1787719881 | 24.44° C | 62% | 1016.8 hPa | - | - | - | - |
| 1787718680 | 24.44° C | 62% | 1016.6 hPa | - | - | - | - |
| 1787717480 | 23.89° C | 64% | 1016.6 hPa | - | - | - | - |
| 1787691864 | 24.44° C | 63% | 1014.6 hPa | - | - | - | - |
| 1787690664 | 25.56° C | 60% | 1014.3 hPa | - | - | - | - |
| 1787689464 | 25.56° C | 58% | 1014.3 hPa | - | - | - | - |
| 1787688263 | 25.56° C | 58% | 1014.1 hPa | - | - | - | - |
| 1787687063 | 25.56° C | 58% | 1013.8 hPa | - | - | - | - |
| 1787685863 | 25.56° C | 59% | 1013.7 hPa | - | - | - | - |
| 1787684662 | 25.56° C | 58% | 1013.4 hPa | - | - | - | - |
* Rain since midnight (hover to see other rain measurements)
** Current wind speed in m/s (hover to see current wind gust speed)